Regional Weather Roundup
Issued by NWS Goodland, KS

Home | Current Version | Previous Version | Text Only | Print | Product List | Glossary On
Versions: 1 2 3 4 5 6 7 8 9 10 11 12 13 14 15 16 17 18 19 20 21 22 23 24 25 26 27 28 29 30 31 32 33 34 35 36 37 38 39 40 41 42 43 44 45 46 47 48 49 50
000
ASUS43 KGLD 241108
RWRGLD

GOODLAND FORECAST AREA HOURLY WEATHER ROUNDUP
NATIONAL WEATHER SERVICE GOODLAND KS
400 AM MST FRI FEB 24 2017

...OFFICIAL OBSERVATIONS...

CITY           SKY/WX    TMP DP  RH WIND       PRES   REMARKS
GOODLAND KS    CLOUDY    20  18  92 NW16      29.81R WCI   6
HILL CITY KS   CLOUDY    27  24  89 N18G25    29.81R WCI  14
IMPERIAL NEB   LGT SNOW  22  18  85 N23       29.86R FOG     WCI   6
MCCOOK NEB     LGT SNOW  24  21  88 N18G29    29.81F FOG     WCI  10
AKRON CO       FLURRIES  17  14  88 N8        29.84R
BURLINGTON CO  MOCLDY    21  17  84 N17G28    29.82R WCI   7
LIMON CO       CLOUDY    17  15  92 N15G25    29.80S WCI   2
$$

...UNOFFICIAL OBSERVATIONS...

CITY           SKY/WX    TMP DP  RH WIND       PRES   REMARKS
LENORA KS        N/A     24  32 100 N12         N/A  WCI  13
NORTON KS      FLURRIES  25  19  80 NW16      29.78R WCI  12
SHARON SPRINGS   N/A     23  18  81 N13G23      N/A  WCI  11
TRIBUNE KS     CLOUDY    25  18  74 NW15G25   29.87  WCI  12
TRENTON NEB      N/A     22  32 100 CALM        N/A
KIT CARSON CO    N/A     19  14  81 MISG        N/A
YUMA CO        CLOUDY    19  18  93 N6        29.85R
$$



USA.gov is the U.S. government's official web portal to all federal, state and local government web resources and services.